When you browse on this site, cookies collect data to enhance your experience and personalize the content and advertising you see.
Visit our Privacy Policy to learn more. By continuing to use the site, you agree to this use of cookies and data.
  • In Sweden
  • List of Countries
  • For 7 days
  • Water Temperature
  • Satellite Maps
  • Weather Map
  • Weather Widgets
  • user-avatar
    Login

    Hourly Weather Peshaya Sloboda

    Today, 22 May, Wednesday

    Time Temperature Precipitation Wind Pressure Humidity
    00:00 +12°C° 0 mm 3 mps 750 mmHg 57%
    01:00 +12°C° 0 mm 3 mps 750 mmHg 66%
    02:00 +12°C° 0 mm 3 mps 750 mmHg 74%
    03:00 +12°C° 0 mm 2 mps 749 mmHg 80%
    04:00 +12°C° 0 mm 3 mps 749 mmHg 81%
    05:00 +13°C° 0 mm 3 mps 749 mmHg 81%
    06:00 +14°C° 0 mm 4 mps 749 mmHg 82%
    07:00 +15°C° 0 mm 4 mps 749 mmHg 77%
    08:00 +18°C° 0 mm 4 mps 748 mmHg 71%
    09:00 +20°C° 0 mm 4 mps 748 mmHg 66%
    10:00 +21°C° 0.8 mm 5 mps 748 mmHg 65%
    11:00 +21°C° 0.8 mm 5 mps 747 mmHg 63%
    12:00 +22°C° 0.8 mm 5 mps 747 mmHg 62%
    13:00 +22°C° 0.2 mm 5 mps 747 mmHg 59%
    14:00 +23°C° 0.2 mm 5 mps 746 mmHg 57%
    15:00 +23°C° 0.2 mm 5 mps 746 mmHg 54%
    16:00 +22°C° 0.4 mm 5 mps 746 mmHg 60%
    17:00 +21°C° 0.4 mm 4 mps 746 mmHg 66%
    18:00 +21°C° 0.4 mm 4 mps 745 mmHg 71%
    19:00 +19°C° 0.2 mm 4 mps 745 mmHg 77%
    20:00 +17°C° 0.2 mm 4 mps 745 mmHg 82%
    21:00 +16°C° 0.2 mm 3 mps 745 mmHg 87%
    22:00 +15°C° 0.1 mm 4 mps 745 mmHg 87%
    23:00 +14°C° 0.1 mm 4 mps 745 mmHg 87%

    Tomorrow, 23 May, Thursday

    Time Temperature Precipitation Wind Pressure Humidity
    00:00 +14°C° 0.1 mm 4 mps 745 mmHg 87%
    01:00 +14°C° 0 mm 4 mps 744 mmHg 85%
    02:00 +13°C° 0 mm 4 mps 744 mmHg 82%
    03:00 +13°C° 0 mm 4 mps 744 mmHg 80%
    04:00 +13°C° 0 mm 4 mps 744 mmHg 79%
    05:00 +13°C° 0 mm 4 mps 743 mmHg 78%
    06:00 +13°C° 0 mm 4 mps 743 mmHg 78%
    07:00 +15°C° 0 mm 5 mps 743 mmHg 73%
    08:00 +16°C° 0 mm 5 mps 743 mmHg 68%
    09:00 +19°C° 0 mm 5 mps 742 mmHg 63%
    10:00 +20°C° 0 mm 5 mps 742 mmHg 60%
    11:00 +21°C° 0 mm 5 mps 742 mmHg 57%
    12:00 +22°C° 0 mm 6 mps 741 mmHg 53%
    13:00 +23°C° 0 mm 5 mps 741 mmHg 54%
    14:00 +23°C° 0 mm 5 mps 740 mmHg 56%
    15:00 +23°C° 0 mm 5 mps 740 mmHg 57%
    16:00 +23°C° 0.2 mm 4 mps 740 mmHg 62%
    17:00 +22°C° 0.2 mm 4 mps 739 mmHg 67%
    18:00 +21°C° 0.2 mm 3 mps 739 mmHg 73%
    19:00 +20°C° 0.2 mm 3 mps 739 mmHg 77%
    20:00 +18°C° 0.2 mm 3 mps 739 mmHg 82%
    21:00 +17°C° 0.2 mm 2 mps 739 mmHg 86%
    22:00 +16°C° 0.2 mm 2 mps 739 mmHg 88%
    23:00 +16°C° 0.2 mm 2 mps 739 mmHg 91%

    Day after tomorrow, 24 May, Friday

    Time Temperature Precipitation Wind Pressure Humidity
    00:00 +15°C° 0.2 mm 2 mps 739 mmHg 93%
    01:00 +15°C° 0 mm 2 mps 740 mmHg 94%
    02:00 +15°C° 0 mm 2 mps 740 mmHg 95%
    03:00 +14°C° 0 mm 2 mps 740 mmHg 96%
    04:00 +13°C° 0 mm 3 mps 740 mmHg 95%
    05:00 +13°C° 0 mm 4 mps 741 mmHg 94%
    06:00 +13°C° 0 mm 5 mps 741 mmHg 94%
    07:00 +13°C° 0 mm 5 mps 742 mmHg 92%
    08:00 +13°C° 0 mm 5 mps 743 mmHg 90%
    09:00 +12°C° 0 mm 5 mps 743 mmHg 89%
    10:00 +13°C° 0 mm 5 mps 744 mmHg 84%
    11:00 +14°C° 0 mm 5 mps 744 mmHg 80%
    12:00 +15°C° 0 mm 5 mps 744 mmHg 75%
    13:00 +15°C° 0 mm 5 mps 745 mmHg 71%
    14:00 +17°C° 0 mm 4 mps 745 mmHg 66%
    15:00 +18°C° 0 mm 4 mps 745 mmHg 62%
    16:00 +17°C° 0 mm 4 mps 745 mmHg 63%
    17:00 +17°C° 0 mm 4 mps 745 mmHg 63%
    18:00 +15°C° 0 mm 4 mps 746 mmHg 64%
    19:00 +14°C° 0 mm 4 mps 746 mmHg 67%
    20:00 +12°C° 0 mm 4 mps 747 mmHg 70%
    21:00 +10°C° 0 mm 4 mps 747 mmHg 73%
    22:00 +10°C° 0 mm 4 mps 747 mmHg 74%
    23:00 +8°C° 0 mm 4 mps 748 mmHg 74%

    25 May, Saturday

    Time Temperature Precipitation Wind Pressure Humidity
    00:00 +8°C° 0 mm 4 mps 748 mmHg 75%
    01:00 +7°C° 0 mm 4 mps 748 mmHg 76%
    02:00 +7°C° 0 mm 4 mps 748 mmHg 78%
    03:00 +7°C° 0 mm 4 mps 748 mmHg 79%
    04:00 +7°C° 0 mm 4 mps 748 mmHg 75%
    05:00 +8°C° 0 mm 5 mps 748 mmHg 72%
    06:00 +8°C° 0 mm 5 mps 748 mmHg 68%
    07:00 +10°C° 0 mm 6 mps 748 mmHg 66%
    08:00 +11°C° 0 mm 6 mps 748 mmHg 65%
    09:00 +14°C° 0 mm 6 mps 748 mmHg 63%
    10:00 +15°C° 0 mm 6 mps 748 mmHg 64%
    11:00 +16°C° 0 mm 7 mps 747 mmHg 65%
    12:00 +17°C° 0 mm 7 mps 747 mmHg 65%
    13:00 +17°C° 0 mm 7 mps 747 mmHg 66%
    14:00 +18°C° 0 mm 7 mps 746 mmHg 67%
    15:00 +18°C° 0 mm 7 mps 746 mmHg 68%
    16:00 +19°C° 0 mm 6 mps 745 mmHg 71%
    17:00 +19°C° 0 mm 6 mps 745 mmHg 73%
    18:00 +19°C° 0 mm 5 mps 744 mmHg 76%
    19:00 +17°C° 0 mm 5 mps 744 mmHg 78%
    20:00 +16°C° 0 mm 5 mps 744 mmHg 80%
    21:00 +15°C° 0 mm 5 mps 744 mmHg 82%
    22:00 +15°C° 0 mm 6 mps 743 mmHg 80%
    23:00 +15°C° 0 mm 6 mps 743 mmHg 78%

    26 May, Sunday

    Time Temperature Precipitation Wind Pressure Humidity
    00:00 +14°C° 0 mm 7 mps 743 mmHg 76%
    01:00 +14°C° 0 mm 6 mps 742 mmHg 78%
    02:00 +14°C° 0 mm 6 mps 742 mmHg 80%
    03:00 +13°C° 0 mm 6 mps 742 mmHg 83%
    04:00 +13°C° 0.1 mm 6 mps 741 mmHg 86%
    05:00 +14°C° 0.1 mm 5 mps 741 mmHg 89%
    06:00 +14°C° 0.1 mm 5 mps 741 mmHg 92%
    07:00 +14°C° 0.2 mm 5 mps 740 mmHg 91%
    08:00 +14°C° 0.2 mm 4 mps 740 mmHg 90%
    09:00 +14°C° 0.2 mm 4 mps 740 mmHg 89%
    10:00 +14°C° 0.3 mm 3 mps 740 mmHg 91%
    11:00 +15°C° 0.3 mm 2 mps 740 mmHg 93%
    12:00 +14°C° 0.3 mm 2 mps 739 mmHg 95%
    13:00 +16°C° 0 mm 2 mps 739 mmHg 88%
    14:00 +18°C° 0 mm 3 mps 739 mmHg 82%
    15:00 +19°C° 0 mm 3 mps 739 mmHg 76%
    16:00 +19°C° 0.3 mm 3 mps 739 mmHg 77%
    17:00 +19°C° 0.3 mm 3 mps 739 mmHg 79%
    18:00 +19°C° 0.3 mm 3 mps 739 mmHg 81%
    19:00 +18°C° 0.1 mm 3 mps 739 mmHg 85%
    20:00 +17°C° 0.1 mm 3 mps 739 mmHg 89%
    21:00 +16°C° 0.1 mm 3 mps 739 mmHg 92%
    22:00 +14°C° 0 mm 3 mps 739 mmHg 93%
    23:00 +14°C° 0 mm 3 mps 739 mmHg 94%

    27 May, Monday

    Time Temperature Precipitation Wind Pressure Humidity
    00:00 +14°C° 0 mm 3 mps 739 mmHg 95%
    01:00 +14°C° 0 mm 3 mps 739 mmHg 96%
    02:00 +14°C° 0 mm 3 mps 739 mmHg 96%
    03:00 +14°C° 0 mm 3 mps 739 mmHg 96%
    04:00 +14°C° 0 mm 3 mps 740 mmHg 95%
    05:00 +14°C° 0 mm 4 mps 740 mmHg 93%
    06:00 +14°C° 0 mm 4 mps 741 mmHg 91%
    07:00 +17°C° 0 mm 4 mps 741 mmHg 84%
    08:00 +17°C° 0 mm 5 mps 741 mmHg 76%
    09:00 +19°C° 0 mm 5 mps 742 mmHg 68%
    10:00 +20°C° 0 mm 6 mps 742 mmHg 65%
    11:00 +21°C° 0 mm 6 mps 742 mmHg 62%
    12:00 +22°C° 0 mm 6 mps 742 mmHg 59%
    13:00 +21°C° 0.6 mm 7 mps 742 mmHg 66%
    14:00 +20°C° 0.6 mm 8 mps 742 mmHg 73%
    15:00 +18°C° 0.6 mm 8 mps 742 mmHg 80%
    16:00 +18°C° 0.4 mm 8 mps 742 mmHg 80%
    17:00 +17°C° 0.4 mm 7 mps 742 mmHg 79%
    18:00 +17°C° 0.4 mm 6 mps 743 mmHg 78%
    19:00 +16°C° 0 mm 6 mps 743 mmHg 79%
    20:00 +14°C° 0 mm 5 mps 744 mmHg 80%
    21:00 +13°C° 0 mm 5 mps 744 mmHg 81%
    22:00 +12°C° 0 mm 4 mps 745 mmHg 82%
    23:00 +11°C° 0 mm 4 mps 745 mmHg 83%
    Show more